Weather History for Sidney, NE

Change the Weather History Date:

Monday, February 11, 2013

  Actual Average Record
Temperature  
Mean Temperature 18 °F 31 °F  
Max Temperature 32 °F 44 °F 73 °F (1962)
Min Temperature 4 °F 18 °F -14 °F (1986)
Degree Days  
Heating Degree Days 47 34  
Month to date heating degree days 351 382  
Since 1 July heating degree days 4054 4039  
Cooling Degree Days 0 0  
Month to date cooling degree days 0 0  
Year to date cooling degree days 0 0  
Moisture  
Dew Point 9 °F    
Average Humidity 66    
Maximum Humidity 86    
Minimum Humidity 46    
Precipitation  
Precipitation 0.00 in 0.01 in 0.59 in (1993)
Month to date precipitation 0.01 0.10  
Year to date precipitation 0.18 0.30  
Sea Level Pressure  
Sea Level Pressure 30.19 in    
Wind  
Wind Speed 9 mph (West)    
Max Wind Speed 17 mph    
Max Gust Speed 21 mph    
Visibility 10 miles    
Events      
T = Trace of Precipitation, MM = Missing Value Source: NWS Daily Summary

Daily Weather History Graph

Daily Weather History Graph

Search for Another Location

Airport:

Trip Planner

Search our weather history database for the weather conditions in past years. The results will help you decide how hot, cold, wet, or windy it might be!

Date:

Astronomy

Feb. 11, 2013 Rise Set
Actual Time 6:51 AM MST 5:21 PM MST
Civil Twilight 6:22 AM MST 5:50 PM MST
Nautical Twilight 5:50 AM MST 6:22 PM MST
Astronomical Twilight 5:18 AM MST 6:54 PM MST
Moon 7:15 AM MST (2/11) 7:22 PM MST (2/11)
Length of Visible Light 11h 27m
Length of Day
10h 30m
Waxing Crescent, 3% of the Moon is Illuminated
Feb 11
Waxing Crescent
Feb 17
First Quarter
Feb 25
Full
Mar 4
Last Quarter
Mar 11
New

Hourly Weather History & Observations

Time (MST) Temp. Windchill Dew Point Humidity Pressure Visibility Wind Dir Wind Speed Gust Speed Precip Events Conditions
12:53 AM 15.1 °F -0.1 °F 6.1 °F 68% 30.15 in 10.0 mi WNW 15.0 mph - N/A   Clear
1:53 AM 12.0 °F -2.0 °F 6.1 °F 77% 30.19 in 10.0 mi NW 11.5 mph - N/A   Clear
2:53 AM 10.0 °F -2.9 °F 5.0 °F 80% 30.21 in 10.0 mi NW 9.2 mph - N/A   Clear
3:53 AM 10.9 °F -5.9 °F 5.0 °F 77% 30.19 in 10.0 mi NW 16.1 mph - N/A   Clear
4:53 AM 9.0 °F -7.3 °F 3.9 °F 80% 30.21 in 10.0 mi WNW 13.8 mph - N/A   Clear
5:53 AM 7.0 °F -7.5 °F 1.9 °F 80% 30.23 in 10.0 mi WNW 10.4 mph - N/A   Clear
6:53 AM 3.9 °F -11.3 °F -0.0 °F 84% 30.27 in 10.0 mi West 10.4 mph - N/A   Clear
7:53 AM 10.0 °F -1.9 °F 3.0 °F 73% 30.26 in 10.0 mi WNW 8.1 mph - N/A   Clear
8:53 AM 15.1 °F 2.5 °F 6.1 °F 68% 30.25 in 10.0 mi WNW 10.4 mph - N/A   Clear
9:53 AM 21.0 °F 13.4 °F 10.9 °F 65% 30.24 in 10.0 mi NW 5.8 mph - N/A   Clear
10:53 AM 24.1 °F 15.2 °F 12.9 °F 62% 30.23 in 10.0 mi WNW 8.1 mph - N/A   Clear
11:53 AM 27.0 °F 18.7 °F 12.0 °F 53% 30.19 in 10.0 mi NNW 8.1 mph - N/A   Clear
12:53 PM 28.9 °F 22.8 °F 10.9 °F 47% 30.17 in 10.0 mi West 5.8 mph - N/A   Partly Cloudy
1:53 PM 28.9 °F 23.9 °F 10.9 °F 47% 30.15 in 10.0 mi Variable 4.6 mph - N/A   Overcast
2:53 PM 30.0 °F 26.5 °F 14.0 °F 51% 30.14 in 10.0 mi SSW 3.5 mph - N/A   Overcast
3:53 PM 30.0 °F - 14.0 °F 51% 30.13 in 10.0 mi Calm Calm - N/A   Overcast
4:53 PM 28.9 °F 19.8 °F 15.1 °F 56% 30.15 in 10.0 mi SSE 10.4 mph - N/A   Overcast
5:53 PM 23.0 °F 14.7 °F 14.0 °F 68% 30.18 in 10.0 mi South 6.9 mph - N/A   Mostly Cloudy
6:53 PM 19.9 °F 8.6 °F 12.9 °F 74% 30.21 in 10.0 mi SW 10.4 mph - N/A   Clear
7:53 PM 19.0 °F 8.2 °F 12.9 °F 77% 30.19 in 10.0 mi SW 9.2 mph - N/A   Clear
8:53 PM 17.1 °F 5.0 °F 10.9 °F 77% 30.19 in 10.0 mi SW 10.4 mph - N/A   Clear
9:53 PM 17.1 °F 5.8 °F 10.9 °F 77% 30.17 in 10.0 mi SW 9.2 mph - N/A   Clear
10:53 PM 16.0 °F 2.9 °F 10.0 °F 77% 30.16 in 10.0 mi SW 11.5 mph - N/A   Clear
11:53 PM 12.0 °F 0.5 °F 8.1 °F 84% 30.16 in 10.0 mi WNW 8.1 mph - N/A   Clear